PSLV R/B, 43620

Orbit data source: Space-Track

PSLV R/B, 43620 is space debris in SSO originally from a launch on Sun, 16 Sep 2018 UTC launched from the Sirharikota (SRI). Debris objects in space refer to the collection of defunct objects orbiting the Earth. Examples of debris include non-operational satellites, rocket bodies, and fragments generated from explosions, collisions, or faulty payload assembly.

Loading next visibility...
Identifier
43620, 2018-071C
Orbit
SSO
Last TLE update
18 hours ago
Origin
Manufacturer
VSSC/LPSC
Mission
Spacecraft
Bus & Motor
PS-4, Unknown motor
Mass
920 kg wet, 920 kg dry
Launch date (UTC)
2018-09-16 (7 years ago)
Launch vehicle
Unknown
Launch site
Sirharikota (SRI)
Object type
Payload
Rocket body
Debris
Shape & HBR
Cyl + Cyl + 2 Nozzle, 3.238 m
Radar Cross Section
6.185 m², Large (>1 m²)

Expand to show TLE details & history

TLE from 18 hours ago
0 PSLV R/B
1 43620U 18071C   25183.52573883  .00001822  00000-0  15609-3 0  9999
2 43620  97.4389  10.4144 0025864 227.8897 132.0128 14.98494873370025
Epoch: 2025-07-02T12:37Z
TLE epoch observation values (Epoch: 2025-07-02T12:37:03.834Z)
Latitude
-0.00003°
Longitude
-99.65715°
Altitude
586.665 km
Speed
7.56 km/s
True Right ascension
00h 41m 39s
True Declination
0° 00' 00"
Sunlit
Object was in daylight at epoch
Visualization orbit readout
Latitude
30.21857°
Longitude
-103.28891°
Altitude
592.808 km
Speed
7.557 km/s
Apparent Right ascension
02h 56m 04s
Apparent Declination
-4° 07' 10"
Sunlit
Object is in daylight
Visualization observer readout
Local Sidereal Time
18:08:35
Azimuth
63.391° ENE
Elevation
-33.828°
Doppler factor
1
Orbital elements
Apogee altitude
586.509 km
Perigee altitude
550.575 km
Semi-major axis
6,946.679 km
Eccentricity
0.00259
Inclination
97.4389°
RAAN
10.4144°
Arg. of periapsis
227.8897°
True anomaly
Unknown
Mean anomaly
132.0128°
Eccentric anomaly
Unknown
Mean motion
3.74867 °/min
Orbital period
96.03 mins
BSTAR
0.00015609
Loading maneuver chart data...
Loading SW <> Apogee altitude chart data...
Loading historical data...
Loading historical data...
Loading historical data...
Loading historical data...
Loading historical data...
Loading historical data...
Loading historical data...
Other satellites on launch #71 in the year 2018 (2018-09-16 UTC)

PSLV R/B Visibility forecast

Observer location: undefined°, undefined°

Span
Click to sort rows by Start time (UTC) header in descending order
Start Az.
Max El. time (UTC)
Max El. Az.
Max El.
End time (UTC)
End Az.
6 mins2025-07-03 12:47:55.464Z190.816° SSW2025-07-03 12:49:55.464Z252.105° W39.923°2025-07-03 12:53:55.464Z338.94° N
4 mins2025-07-04 00:28:55.464Z66.581° ENE2025-07-04 00:29:55.464Z85.789° E19.075°2025-07-04 00:32:55.464Z138.833° SSE
4 mins2025-07-04 02:03:55.464Z326.577° NNW2025-07-04 02:05:55.464Z277.354° WNW24.829°2025-07-04 02:07:55.464Z239.463° WSW
|